GEFSGL_500_meanwind_168.txt.gz
Wind_Speed
11 11 10 9 8 7 6 5 5 6 5 5 5 5 4 4 3 3 3 3 3 3 3 3 3 4 4 4 5 6 6 6 6 7 7 7 8 8 8 9 10 10 11
12 12 11 10 9 8 8 7 7 7 7 6 5 5 4 4 3 3 4 4 4 4 5 5 5 6 6 6 6 7 7 8 8 8 9 9 9 10 10 10 11 12 12
13 12 12 11 10 10 9 9 9 9 8 7 6 5 5 5 4 4 5 5 5 6 6 7 7 7 8 8 8 9 9 9 9 9 10 10 11 12 13 13 13 13 14
14 13 12 12 11 11 10 10 10 10 10 9 7 7 6 6 6 6 6 6 6 7 7 8 8 9 9 10 10 11 11 11 11 11 12 12 13 14 14 15 15 15 16
14 14 13 12 11 12 11 11 11 11 11 11 9 9 8 8 8 8 8 8 8 8 9 9 10 10 11 12 12 12 13 13 13 14 14 15 15 16 17 17 18 18 18
15 14 13 13 12 12 12 12 12 12 12 12 11 10 10 10 10 10 10 10 10 10 11 11 12 13 13 14 14 14 15 15 16 16 16 17 18 19 19 20 20 20 20
16 15 15 14 14 14 13 14 14 14 14 13 12 12 12 12 11 12 12 12 12 12 12 13 13 14 15 15 16 16 17 17 18 19 19 19 20 21 21 21 22 22 22
17 17 16 16 16 15 15 15 15 15 15 14 14 14 13 13 13 14 14 14 14 14 15 15 16 16 17 18 19 19 20 20 21 21 22 23 23 23 23 24 24 25 25
16 17 17 17 17 17 17 17 17 17 17 16 16 16 15 16 16 16 16 16 16 17 17 18 18 19 20 21 21 22 23 23 24 25 25 26 26 26 26 27 27 27 28
17 18 18 18 18 18 18 17 17 17 17 17 17 17 18 18 18 18 19 19 19 19 20 21 21 22 23 23 24 25 25 26 27 27 28 28 28 28 29 29 30 30 31
18 19 19 19 19 18 18 18 18 18 18 18 19 19 20 20 20 20 21 21 21 22 22 23 24 25 25 26 27 27 28 29 29 30 30 30 30 31 31 32 33 33 33
19 19 19 19 19 19 19 20 20 20 20 20 21 22 22 22 23 23 23 23 24 24 24 25 26 27 28 28 29 30 30 31 32 32 32 32 33 33 34 34 35 36 36
19 19 19 20 20 20 21 21 22 21 21 22 22 23 24 24 24 24 25 25 26 26 27 27 29 29 30 31 32 33 33 34 34 34 35 35 35 36 36 37 38 38 38
19 20 20 21 21 21 21 21 21 22 22 23 24 24 25 26 26 27 27 28 28 28 29 30 31 32 32 33 34 35 36 36 37 37 37 37 38 39 39 40 40 40 40
21 21 21 22 22 22 22 22 23 23 24 25 26 26 27 28 28 29 29 30 30 31 32 32 33 34 35 35 36 37 37 38 38 38 39 39 40 41 42 42 42 42 42
22 22 23 24 24 24 24 25 25 26 27 28 28 29 29 30 30 31 32 32 33 33 34 34 35 36 37 37 38 38 39 39 39 40 41 42 42 43 44 44 44 45 45
23 24 24 25 25 26 26 27 28 28 29 30 30 31 32 32 33 33 34 34 35 35 36 37 37 38 38 39 39 40 41 41 42 42 43 44 44 45 46 46 46 46 47
24 25 25 26 27 28 29 29 30 30 30 31 32 32 33 34 34 35 36 36 37 37 38 38 39 40 40 41 42 43 43 44 44 44 45 46 47 48 48 48 48 48 48
26 27 28 28 29 29 30 31 31 31 32 33 33 34 35 36 36 37 38 38 39 39 40 40 41 42 43 44 45 45 46 46 46 47 47 48 49 50 50 50 50 50 51
28 28 29 29 30 31 32 32 33 33 34 35 36 36 37 38 38 39 40 40 41 41 42 43 44 45 46 46 47 48 48 48 49 49 50 51 51 51 52 52 52 52 52
29 30 30 31 32 33 34 34 35 36 36 37 38 38 39 39 40 40 41 42 43 43 44 44 45 47 48 49 49 49 49 50 51 52 53 53 53 52 52 53 53 53 53
31 32 32 33 34 35 35 36 37 37 38 38 39 40 40 40 41 42 42 43 45 45 46 47 48 49 50 50 51 51 52 52 53 54 54 54 54 53 53 54 54 55 55
34 34 34 35 36 36 37 39 39 39 39 40 41 41 42 42 43 44 45 46 47 47 48 49 50 50 51 52 53 53 53 53 54 54 54 54 54 54 54 54 55 56 56
35 36 36 37 38 38 39 40 40 41 41 42 42 43 43 44 45 46 47 48 48 49 50 51 51 52 52 53 53 54 54 55 55 55 55 55 55 55 55 55 55 55 55
37 38 39 40 40 41 41 42 42 43 43 44 44 44 45 46 47 47 48 49 50 51 51 52 52 53 53 54 54 55 55 55 56 56 56 56 56 55 56 55 54 54 55
40 41 41 42 43 43 43 44 44 45 45 46 46 46 47 48 49 49 50 50 51 52 52 53 54 54 55 55 55 55 55 55 55 56 56 56 55 55 55 54 53 53 53

GEFSGL_500_meanwind_174.txt.gz
Wind_Speed
13 12 11 11 9 8 8 7 6 6 5 6 6 6 6 6 6 5 5 4 4 3 3 4 4 4 4 5 6 6 7 7 7 7 7 8 8 9 10 11 12 12 13
14 13 13 11 10 9 9 8 7 7 7 7 7 7 7 7 6 6 5 5 5 5 5 5 5 5 6 6 7 8 8 8 8 9 9 9 10 11 12 12 13 14 14
15 14 14 12 11 10 10 9 9 9 9 8 8 8 8 7 7 7 7 6 6 6 6 6 7 7 8 8 9 9 10 10 10 11 11 11 12 12 13 13 14 15 16
17 16 15 14 12 12 12 11 10 10 10 10 10 10 9 9 8 8 8 8 8 8 8 9 9 10 10 10 11 11 11 12 12 13 13 13 14 14 15 15 15 16 17
17 16 16 15 14 13 13 13 12 12 12 11 11 11 11 11 10 10 10 10 9 10 10 11 11 12 12 12 13 13 13 14 14 14 15 15 16 16 17 18 18 18 19
16 17 17 16 15 15 15 14 14 14 14 13 12 12 12 12 12 11 12 11 11 12 12 12 13 13 14 14 15 15 15 15 16 16 17 17 18 19 19 20 21 21 22
17 17 17 17 17 16 16 16 16 16 15 15 14 13 13 14 14 13 13 13 14 14 14 14 15 15 15 15 15 16 17 17 18 18 18 19 20 21 22 23 23 24 24
18 18 18 18 17 17 17 17 17 17 17 16 15 15 16 16 16 16 16 16 17 17 17 17 17 17 18 17 17 18 19 19 19 20 21 21 22 23 24 25 26 27 27
17 17 18 18 17 17 18 18 18 18 17 17 17 17 17 18 18 18 18 18 18 19 19 19 19 19 19 20 20 21 21 22 22 23 24 24 25 26 27 27 28 29 30
18 18 18 18 19 19 19 19 19 18 18 19 19 19 20 19 20 19 20 21 21 21 21 21 22 22 22 22 23 24 24 25 25 25 26 27 28 29 30 30 31 31 32
19 19 19 19 20 20 20 21 21 20 21 21 21 21 21 21 21 21 21 22 22 23 23 23 23 24 24 24 25 27 27 27 27 28 29 30 31 32 32 33 33 33 34
20 21 20 20 21 21 21 22 22 22 22 22 22 22 22 22 22 22 23 23 23 24 24 25 25 26 26 27 28 29 29 29 30 31 32 32 33 34 34 34 34 34 35
22 22 22 22 23 22 22 22 23 23 23 23 23 23 23 23 23 23 24 25 25 26 26 27 27 28 28 29 30 31 31 32 32 33 34 34 35 35 34 34 35 35 36
23 24 24 24 23 23 23 23 23 23 23 24 24 24 24 24 25 25 26 27 27 28 28 29 29 30 31 32 32 32 33 34 34 35 36 36 35 35 35 36 37 37 37
23 24 24 24 24 24 24 24 23 24 24 25 26 25 25 26 26 27 28 29 29 30 31 31 32 32 33 33 33 34 34 35 36 36 37 37 37 37 38 38 39 40 40
24 24 24 24 24 24 25 25 25 26 27 27 27 27 27 27 28 29 30 31 31 33 33 33 34 35 35 35 35 35 35 36 37 37 38 38 39 40 40 41 42 43 43
24 25 25 25 25 26 26 27 27 28 28 28 28 28 29 29 30 31 32 32 33 34 35 35 36 36 36 37 37 37 37 38 39 39 39 40 41 42 43 43 45 46 46
25 26 26 26 27 27 28 28 29 29 29 30 30 30 31 32 33 33 34 34 35 36 36 37 37 38 38 38 39 39 40 40 41 42 42 43 44 45 46 46 47 48 48
25 25 26 26 27 28 28 29 30 30 31 31 31 32 33 34 34 35 35 36 37 37 38 38 39 39 40 40 41 42 43 43 44 45 46 47 48 48 49 49 50 50 50
26 27 27 28 28 29 30 30 30 31 31 32 32 33 34 35 36 37 37 38 39 39 40 40 40 41 41 42 43 44 45 45 46 47 48 49 50 51 51 51 51 52 52
27 28 28 28 29 30 31 31 31 31 32 33 34 35 36 37 37 38 39 40 41 41 41 42 42 43 43 44 45 46 47 48 49 50 51 51 52 52 52 52 53 53 53
29 29 30 30 31 31 32 33 33 34 34 36 37 37 38 38 39 40 40 40 41 42 43 43 43 44 45 46 47 48 49 50 51 52 52 53 53 53 53 53 53 53 53
30 31 31 32 33 34 35 35 36 36 37 38 38 39 39 40 40 41 41 42 42 43 44 44 45 45 47 48 49 50 51 52 53 53 53 53 53 53 53 53 53 53 53
32 33 34 34 35 36 37 37 38 39 40 40 40 40 41 41 42 43 43 44 44 44 45 45 46 47 48 49 51 52 53 53 53 53 53 53 53 53 53 53 53 53 53
33 34 35 36 36 37 38 38 39 40 40 41 41 42 43 44 44 45 45 45 46 46 46 47 48 48 49 50 51 52 53 53 53 53 53 53 53 52 52 52 52 52 52
35 36 36 37 38 39 40 40 41 41 41 42 43 44 45 45 46 46 46 47 47 47 47 48 48 49 50 50 51 52 52 53 52 52 52 52 52 51 51 52 52 52 52

GEFSGL_500_meanwind_180.txt.gz
Wind_Speed
15 15 14 13 13 12 11 9 9 9 9 8 7 6 6 6 6 6 6 6 6 6 6 6 6 6 6 6 7 7 8 8 9 9 10 10 11 11 11 12 12 13 13
16 16 15 14 13 13 12 11 10 10 10 9 8 7 7 7 7 7 7 7 6 6 6 7 7 7 8 8 9 9 9 10 11 11 12 12 13 13 13 14 14 14 15
16 16 16 15 15 14 13 12 12 11 10 9 9 8 8 8 8 8 8 8 8 8 8 8 8 8 9 10 11 11 11 12 13 13 13 14 15 15 15 16 16 17 18
16 16 16 16 15 15 14 14 13 12 11 11 10 10 10 9 10 10 10 10 9 9 9 10 10 10 11 11 12 13 14 14 15 15 15 16 17 17 17 17 18 19 19
16 16 16 16 16 16 16 15 13 13 13 12 12 11 11 11 11 11 11 11 10 10 11 11 12 12 13 14 14 15 15 15 16 16 17 17 17 18 18 19 20 20 21
16 16 16 16 16 16 16 15 15 15 14 13 13 13 13 13 13 12 12 12 12 12 12 13 13 14 15 15 16 17 17 17 17 18 18 19 19 20 20 20 21 22 22
17 16 17 17 16 16 16 16 16 15 15 15 15 15 15 15 15 15 15 15 15 15 15 15 16 16 16 17 17 18 18 18 19 19 19 20 20 20 21 21 22 23 24
18 18 17 17 17 17 17 17 16 16 16 16 15 16 17 17 17 16 17 17 18 18 18 18 18 18 18 19 19 19 19 19 20 20 21 22 22 23 24 24 24 25 26
18 17 18 17 17 18 18 18 18 18 17 17 17 17 17 18 18 18 19 19 20 20 20 20 20 20 21 21 21 21 21 22 22 23 23 24 25 26 27 27 27 29 29
18 17 18 18 18 18 19 19 19 18 18 18 18 19 19 20 20 20 20 21 21 21 22 22 22 22 22 22 22 23 24 24 25 25 26 27 27 29 30 30 30 32 32
18 18 18 18 19 19 19 19 19 19 19 19 19 20 20 20 21 21 22 22 22 22 23 23 23 24 24 24 25 26 26 26 27 28 29 30 30 31 33 33 33 34 34
18 19 19 18 18 18 18 18 19 20 20 21 21 21 22 22 22 22 23 23 23 23 23 24 24 25 26 27 27 27 28 28 29 30 31 32 33 34 35 35 34 34 34
18 18 19 19 19 19 19 20 20 21 22 22 22 22 23 23 23 23 24 24 24 24 25 25 26 26 27 28 29 29 30 31 32 32 33 34 35 36 36 35 34 35 35
19 19 20 21 21 21 21 22 22 22 22 23 23 24 24 24 24 24 24 25 25 26 27 27 27 28 29 30 31 31 32 33 34 35 35 36 36 36 36 36 36 37 38
20 20 21 22 23 23 23 23 24 24 25 24 25 25 25 25 25 25 26 27 27 27 28 28 29 30 31 32 33 34 34 35 36 37 37 37 37 37 38 38 38 39 40
21 22 23 23 24 25 25 26 26 26 26 26 26 26 27 27 27 28 28 28 28 29 29 30 31 32 32 33 34 35 36 37 37 38 38 38 38 38 38 39 40 41 43
23 23 24 24 25 26 26 26 27 27 27 27 27 27 28 29 29 30 30 30 30 31 31 32 33 34 34 35 36 36 37 38 38 38 38 38 39 40 41 42 43 44 45
24 24 25 25 26 26 26 26 26 27 27 27 27 28 28 29 30 31 31 31 32 33 33 34 35 36 36 37 38 38 39 39 40 40 40 41 42 43 44 45 46 47 47
23 24 24 25 25 26 27 27 27 27 28 28 29 30 30 31 31 32 33 33 34 35 35 36 37 38 38 39 40 40 41 42 42 42 43 44 45 46 47 47 48 48 49
23 24 24 24 24 25 26 27 27 28 28 29 30 30 31 32 32 33 35 35 36 37 37 38 38 39 40 40 41 41 41 42 43 44 44 45 46 47 47 48 48 49 49
23 24 24 25 25 26 27 28 28 29 30 30 31 32 33 34 35 36 37 38 38 38 39 39 40 41 41 41 41 42 43 44 45 46 47 47 47 48 48 48 49 50 51
25 25 25 26 27 27 28 28 29 30 31 31 32 34 35 35 36 37 38 38 39 39 40 41 41 42 42 43 44 45 46 47 47 47 48 48 48 49 49 50 51 52 52
25 26 26 27 28 28 28 29 30 31 31 33 34 35 35 36 37 38 39 40 40 41 42 43 43 44 44 45 46 46 47 48 48 48 48 49 49 50 50 51 52 52 51
27 28 28 29 30 30 31 31 31 32 33 33 34 35 36 37 39 40 40 40 41 41 42 43 43 44 45 46 46 47 47 47 47 47 48 49 50 51 51 51 51 50 51
29 30 30 31 31 31 32 33 33 34 34 36 37 37 38 39 40 40 41 42 42 42 42 42 43 43 44 44 45 45 46 47 47 48 49 49 49 49 50 50 50 50 50
31 31 32 32 33 33 33 34 34 35 36 37 38 39 40 40 41 42 41 41 40 40 41 41 42 42 43 43 44 45 46 47 47 48 48 49 49 49 49 49 49 48 48

GEFSGL_500_meanwind_186.txt.gz
Wind_Speed
13 12 12 12 12 12 11 10 9 9 9 8 7 7 7 8 8 7 7 7 8 8 8 7 7 7 7 7 8 9 9 10 10 11 12 12 13 13 14 14 14 14 14
13 13 13 12 12 12 12 11 11 10 9 9 8 8 8 8 8 8 8 9 9 9 8 8 8 8 9 9 9 10 11 11 12 12 13 14 14 15 15 15 15 16 16
14 13 13 13 12 13 13 12 12 11 11 11 10 10 10 9 8 9 9 10 10 9 9 9 10 10 10 11 11 11 12 12 13 14 15 15 16 17 17 17 16 17 18
14 14 14 13 13 13 14 13 12 12 12 12 11 11 11 10 10 10 10 11 11 10 11 11 11 11 11 12 13 13 13 14 15 16 16 17 17 18 18 18 18 18 19
15 14 14 14 14 14 14 13 13 13 13 13 12 12 12 11 12 12 12 12 12 12 12 12 12 13 13 14 14 14 15 16 17 17 17 18 18 18 18 19 19 19 20
15 15 15 14 14 14 14 13 14 14 14 15 13 13 13 13 13 13 14 13 13 13 13 14 14 14 15 15 16 16 17 17 18 18 19 19 19 19 19 20 21 21 21
16 15 16 15 14 14 14 15 15 15 14 14 14 14 14 14 14 15 15 15 16 16 16 16 16 16 17 17 17 18 19 19 20 20 20 20 21 21 21 22 23 24 25
16 15 15 15 15 15 15 16 16 15 15 15 15 15 16 16 16 16 17 17 17 18 18 18 18 18 19 19 20 20 20 21 21 22 22 22 23 24 24 26 27 27 28
16 16 16 15 15 15 15 16 16 16 16 16 17 17 18 18 19 19 19 19 19 19 20 20 20 20 20 21 22 22 22 23 23 24 24 24 26 27 28 29 29 29 29
16 16 16 16 16 15 15 15 15 15 16 17 18 19 19 19 20 20 20 20 20 21 21 21 22 22 22 23 24 24 24 25 25 26 27 28 29 30 31 31 31 31 31
17 16 16 16 16 16 16 15 16 16 17 17 19 19 19 20 20 20 21 21 22 22 22 22 23 24 24 25 25 25 26 27 27 28 29 30 32 32 33 33 33 34 33
17 17 17 17 16 16 16 17 17 18 19 19 19 20 20 21 21 22 22 23 23 23 23 23 24 24 25 26 27 27 28 29 30 30 31 32 33 34 34 34 34 34 35
17 18 18 17 17 17 18 19 19 19 20 20 20 20 21 22 22 23 24 24 24 24 24 24 25 26 26 27 28 29 30 31 32 32 33 34 34 34 34 34 35 35 36
18 19 19 19 19 18 19 19 20 20 20 21 21 21 22 23 23 24 24 25 25 25 26 27 28 28 28 29 30 31 32 32 33 33 34 34 34 34 35 35 36 36 37
19 20 20 20 20 20 20 21 21 22 22 22 22 22 23 23 24 24 24 25 26 27 27 28 29 30 31 31 32 32 32 32 33 34 34 35 35 35 36 37 38 38 39
19 19 20 20 21 21 21 22 22 23 24 24 23 23 23 24 25 26 26 27 28 28 29 30 31 31 32 33 33 33 34 35 35 36 37 37 38 39 39 40 40 41 41
19 19 20 21 22 22 22 22 23 24 25 25 25 26 26 27 27 28 28 29 30 30 30 31 32 32 33 33 33 34 35 36 36 37 38 39 40 40 41 42 42 42 43
21 22 22 22 23 23 23 23 24 24 25 26 26 27 27 27 27 28 29 30 31 31 31 32 32 33 33 34 35 35 36 36 37 39 40 41 41 41 42 43 44 44 45
22 23 23 23 24 24 24 25 25 25 26 26 27 27 28 28 28 29 30 31 32 32 32 33 33 34 35 35 36 36 37 38 39 40 41 42 42 43 43 45 46 46 46
23 24 25 25 25 25 26 26 26 26 27 28 28 28 29 29 29 30 31 32 33 34 34 35 35 36 36 37 37 38 39 40 41 42 42 43 44 44 45 46 47 47 47
24 24 25 25 25 26 26 26 27 27 28 28 28 29 30 31 31 32 32 33 34 35 36 36 37 38 38 39 39 40 41 42 43 43 43 44 45 46 47 47 48 48 47
24 25 26 26 27 27 27 27 28 28 28 29 29 30 30 32 33 34 34 35 36 37 38 38 39 39 40 41 41 42 43 43 44 44 44 45 45 46 47 47 47 47 47
24 25 27 27 27 27 28 28 28 29 29 29 30 30 32 33 34 35 36 36 37 38 39 39 40 41 42 42 42 42 43 43 43 44 44 44 45 46 46 47 46 46 46
25 26 27 27 28 29 29 30 30 30 30 31 32 33 33 34 35 35 36 37 38 39 39 40 41 42 41 42 42 42 43 43 43 44 44 45 45 46 46 46 46 46 45
27 27 27 27 28 28 29 30 31 32 32 33 33 34 35 35 36 36 37 38 39 39 40 40 40 40 40 41 42 42 43 43 43 44 44 45 46 46 46 46 45 45 45
28 28 28 29 29 30 31 31 32 33 33 34 35 35 36 36 37 38 39 39 39 39 39 39 39 40 40 41 41 42 42 43 43 43 44 45 45 46 45 45 45 45 45

GEFSGL_500_meanwind_192.txt.gz
Wind_Speed
13 13 13 12 11 10 10 8 9 9 8 7 7 7 7 7 7 7 7 7 7 7 7 8 8 8 8 8 8 9 9 9 10 10 10 11 12 13 13 13 13 14 14
13 13 13 12 11 11 10 10 9 9 9 8 8 8 8 8 8 8 7 7 7 8 8 9 9 9 9 10 10 10 10 11 11 12 12 13 13 13 14 14 15 15 15
13 13 13 12 11 11 11 11 11 10 11 10 10 10 10 9 9 9 9 8 9 9 10 10 10 11 11 12 12 12 12 12 12 13 14 14 14 15 15 15 15 15 16
14 14 14 13 12 12 12 12 12 12 11 11 10 11 11 11 11 10 10 10 10 11 11 12 12 12 12 12 13 13 13 13 14 14 15 15 16 16 16 15 15 16 17
15 15 15 15 14 14 13 12 12 12 12 12 11 11 12 13 12 12 12 12 12 13 13 13 13 13 13 13 13 14 15 15 15 16 16 16 17 16 16 17 17 18 19
16 16 16 16 15 15 14 13 13 12 12 12 12 13 14 14 14 14 14 15 15 15 15 15 15 15 15 15 15 16 16 17 17 17 18 18 18 19 19 20 20 21 22
16 16 16 16 16 15 16 15 14 13 13 14 13 14 15 15 15 15 16 16 16 17 17 16 17 17 18 18 18 18 18 18 19 20 20 21 21 22 22 24 25 25 26
17 17 17 17 16 16 16 15 14 14 14 15 15 15 15 16 16 17 17 17 18 18 18 18 18 19 19 19 20 20 21 21 21 22 22 23 24 25 26 27 28 29 30
16 17 17 17 16 16 16 16 16 16 16 16 16 16 16 17 17 18 18 18 19 19 20 20 20 20 20 21 21 22 22 23 23 24 25 26 26 27 28 29 30 31 32
16 16 17 18 18 18 18 17 17 17 17 16 17 17 17 17 18 19 19 20 20 21 21 22 22 22 22 22 22 23 24 25 25 26 27 28 29 30 31 32 33 33 34
17 17 18 19 19 19 18 18 17 17 18 17 18 17 18 18 19 20 20 20 21 22 22 23 22 23 23 24 24 25 26 27 27 28 29 30 30 31 32 33 35 35 36
17 18 18 19 19 19 19 18 18 18 18 18 18 18 18 19 20 20 20 21 22 23 23 23 23 24 25 25 26 27 28 29 30 30 31 31 32 33 34 35 35 36 36
18 18 18 19 19 19 19 18 18 19 19 19 19 19 19 20 20 20 21 22 23 23 23 23 24 25 25 26 28 29 30 30 31 32 32 32 34 35 35 35 36 36 37
19 19 20 20 19 19 19 20 19 19 19 19 20 20 20 20 21 21 22 23 24 25 25 25 26 27 28 29 30 31 32 32 32 33 33 34 35 35 36 36 37 37 37
20 20 21 21 21 21 20 20 21 21 20 20 21 21 22 23 23 24 24 24 26 26 27 28 28 29 30 31 32 33 33 33 33 34 34 35 36 37 37 37 37 37 38
19 20 21 22 22 23 22 22 22 22 22 23 22 22 23 24 25 25 26 26 27 27 28 28 29 30 31 32 32 32 32 33 34 35 35 36 37 38 38 38 39 39 40
20 21 21 22 22 23 23 23 23 23 23 23 23 23 24 25 26 27 27 27 28 28 28 29 30 31 31 32 32 33 33 34 35 35 36 38 38 38 39 39 40 40 40
20 20 20 20 21 22 23 23 23 23 24 24 24 24 25 26 27 28 28 29 29 29 29 30 31 32 32 32 33 34 34 35 36 37 38 39 39 39 40 40 40 41 41
20 20 21 22 22 22 22 23 23 24 24 25 25 25 26 26 27 28 28 29 30 31 31 32 33 33 33 34 34 35 36 37 37 38 39 39 39 40 41 41 41 41 42
21 21 22 22 23 24 24 24 24 25 25 25 25 26 26 27 28 28 29 30 31 32 33 34 34 35 35 35 36 37 38 38 39 39 39 40 40 41 42 42 42 42 43
22 23 23 23 24 24 25 25 25 25 25 25 26 27 28 29 29 30 30 31 32 33 34 35 36 36 37 37 37 38 39 39 40 40 41 41 42 42 43 43 43 43 44
22 22 22 23 24 25 25 26 25 25 26 27 27 28 29 30 31 31 32 33 34 35 36 36 37 38 38 38 38 39 39 40 41 42 42 42 43 43 44 44 44 44 44
22 23 23 24 24 25 25 26 26 26 27 27 28 29 30 32 32 33 34 35 35 36 37 38 38 38 38 39 40 40 41 41 42 43 43 43 43 43 44 43 43 43 44
24 24 24 25 26 26 26 26 26 27 28 29 30 31 32 32 33 34 34 35 36 37 38 39 39 39 40 40 40 41 41 42 42 43 43 43 43 43 43 43 43 44 44
24 25 25 26 26 27 27 27 28 29 29 30 31 32 33 34 35 35 36 36 37 38 39 39 39 39 40 41 41 41 41 42 42 43 43 43 43 43 43 43 43 43 44
25 25 26 26 26 27 27 28 28 29 30 32 33 34 35 35 36 36 36 37 38 39 39 39 40 40 41 42 42 42 42 42 43 43 43 42 43 43 43 43 43 43 43